N5KR Weather Reports


Display with metric or nautical units.
time (UTC)temp
F
wind
direction
speed
MPH
gust
MPH
rain 1hr
in
rain 24hr
in
rain mn
in
humidity
%
barometer
mb
20260902090504 81 159 0.0 0.0 0.00 0.00 0.00 66 1015.9
20260902090005 81 159 0.0 0.0 0.00 0.00 0.00 66 1016.0
20260902085504 82 159 0.0 0.0 0.00 0.00 0.00 66 1015.8
20260902085003 82 159 0.0 0.0 0.00 0.00 0.00 65 1015.9
20260902084003 83 159 0.0 5.0 0.00 0.00 0.00 64 1016.0
20260902083504 83 159 2.0 6.0 0.00 0.00 0.00 63 1015.9
20260902083006 83 159 3.0 7.0 0.00 0.00 0.00 63 1015.9
20260902082507 83 164 4.0 9.0 0.00 0.00 0.00 62 1015.9
20260902082007 83 169 3.0 12.0 0.00 0.00 0.00 62 1015.9
20260902081007 84 165 6.0 13.0 0.00 0.00 0.00 62 1015.9
20260902075507 84 160 6.0 12.0 0.00 0.00 0.00 62 1016.0
20260902075007 84 170 6.0 13.0 0.00 0.00 0.00 62 1015.9
20260902074507 84 173 6.0 12.0 0.00 0.00 0.00 62 1015.9
20260902074006 84 169 6.0 13.0 0.00 0.00 0.00 62 1016.0
20260902073507 84 177 5.0 10.0 0.00 0.00 0.00 62 1015.9
20260902073007 84 163 6.0 10.0 0.00 0.00 0.00 62 1016.1
20260902072506 84 168 5.0 10.0 0.00 0.00 0.00 62 1016.1
20260902071506 84 171 6.0 13.0 0.00 0.00 0.00 62 1016.0
20260902071007 85 171 7.0 13.0 0.00 0.00 0.00 63 1016.0
20260902070007 85 166 5.0 13.0 0.00 0.00 0.00 63 1016.0
20260902065506 85 168 9.0 13.0 0.00 0.00 0.00 63 1015.9
20260902065007 85 153 5.0 10.0 0.00 0.00 0.00 63 1016.0
20260902064506 85 163 6.0 15.0 0.00 0.00 0.00 62 1015.9
20260902063507 85 175 8.0 13.0 0.00 0.00 0.00 63 1015.8
20260902063006 85 170 9.0 13.0 0.00 0.00 0.00 62 1015.8
20260902062506 85 155 10.0 16.0 0.00 0.00 0.00 62 1015.8
20260902062007 85 162 12.0 18.0 0.00 0.00 0.00 62 1015.8
20260902061006 85 163 11.0 16.0 0.00 0.00 0.00 61 1015.7
20260902060506 86 156 9.0 18.0 0.00 0.00 0.00 62 1015.8
20260902060007 86 177 6.0 17.0 0.00 0.00 0.00 61 1015.8
20260902055506 86 169 9.0 13.0 0.00 0.00 0.00 61 1015.8
20260902055006 86 140 7.0 13.0 0.00 0.00 0.00 61 1015.8
20260902054506 86 179 9.0 16.0 0.00 0.00 0.00 60 1015.8
20260902054006 86 166 9.0 15.0 0.00 0.00 0.00 60 1015.8
20260902053506 87 167 7.0 15.0 0.00 0.00 0.00 60 1015.8
20260902053007 87 167 11.0 16.0 0.00 0.00 0.00 60 1015.7
20260902052507 87 167 7.0 15.0 0.00 0.00 0.00 60 1015.7
20260902052006 87 165 10.0 15.0 0.00 0.00 0.00 60 1015.7
20260902051506 87 158 7.0 13.0 0.00 0.00 0.00 59 1015.7
20260902050506 87 157 4.0 12.0 0.00 0.00 0.00 59 1015.7
20260902045007 88 171 5.0 10.0 0.00 0.00 0.00 57 1015.8
20260902044506 88 167 6.0 14.0 0.00 0.00 0.00 56 1015.7
20260902044006 88 168 11.0 16.0 0.00 0.00 0.00 56 1015.8
20260902043506 89 190 6.0 13.0 0.00 0.00 0.00 55 1015.7
20260902043007 89 162 6.0 16.0 0.00 0.00 0.00 55 1015.6
20260902042506 89 160 6.0 16.0 0.00 0.00 0.00 54 1015.6
20260902042006 89 153 6.0 10.0 0.00 0.00 0.00 53 1015.6
20260902041506 89 124 6.0 10.0 0.00 0.00 0.00 53 1015.5
20260902041006 89 135 6.0 13.0 0.00 0.00 0.00 53 1015.5
20260902040006 90 128 1.0 2.0 0.00 0.00 0.00 53 1015.3
20260902035506 90 128 1.0 2.0 0.00 0.00 0.00 52 1015.2
20260902035006 90 128 2.0 7.0 0.00 0.00 0.00 52 1015.2
20260902034006 91 168 3.0 7.0 0.00 0.00 0.00 51 1015.3
20260902033506 91 140 3.0 9.0 0.00 0.00 0.00 51 1015.3
20260902033006 91 144 3.0 7.0 0.00 0.00 0.00 51 1015.3
20260902032506 91 128 2.0 5.0 0.00 0.00 0.00 50 1015.1
20260902032006 91 134 4.0 10.0 0.00 0.00 0.00 50 1015.1
20260902031506 91 147 3.0 10.0 0.00 0.00 0.00 50 1015.2
20260902030505 91 150 1.0 5.0 0.00 0.00 0.00 50 1015.0
20260902030006 91 113 3.0 8.0 0.00 0.00 0.00 50 1015.0
20260902025506 91 136 2.0 5.0 0.00 0.00 0.00 50 1014.8
20260902024506 91 161 2.0 6.0 0.00 0.00 0.00 50 1014.7
20260902024006 91 122 2.0 7.0 0.00 0.00 0.00 50 1014.7
20260902023006 91 127 1.0 2.0 0.00 0.00 0.00 50 1014.5
20260902022506 91 127 2.0 5.0 0.00 0.00 0.00 49 1014.5
20260902022006 91 127 3.0 6.0 0.00 0.00 0.00 49 1014.4
20260902021506 91 121 2.0 5.0 0.00 0.00 0.00 49 1014.3
20260902021006 91 124 3.0 7.0 0.00 0.00 0.00 48 1014.2
20260902020505 91 130 2.0 7.0 0.00 0.00 0.00 48 1014.2
20260902020006 91 106 3.0 7.0 0.00 0.00 0.00 48 1014.0
20260902015506 91 121 2.0 3.0 0.00 0.00 0.00 49 1014.0
20260902015006 91 121 0.0 2.0 0.00 0.00 0.00 48 1013.9
20260902014506 92 121 0.0 2.0 0.00 0.00 0.00 48 1013.9
20260902013506 92 121 0.0 0.0 0.00 0.00 0.00 47 1013.7
20260902013005 92 121 0.0 1.0 0.00 0.00 0.00 47 1013.7
20260902012505 93 121 0.0 2.0 0.00 0.00 0.00 46 1013.7
20260902012006 93 121 1.0 2.0 0.00 0.00 0.00 46 1013.7
20260902011506 93 121 1.0 2.0 0.00 0.00 0.00 46 1013.6
20260902011006 93 121 1.0 5.0 0.00 0.00 0.00 45 1013.6
20260902010505 93 121 1.0 5.0 0.00 0.00 0.00 45 1013.5
20260902010006 94 121 2.0 3.0 0.00 0.00 0.00 44 1013.5
20260902005506 94 121 2.0 6.0 0.00 0.00 0.00 44 1013.6
20260902005006 94 121 2.0 9.0 0.00 0.00 0.00 44 1013.7
20260902004006 94 166 3.0 7.0 0.00 0.00 0.00 43 1013.6
20260902003506 94 174 3.0 10.0 0.00 0.00 0.00 43 1013.7
20260902003005 95 128 4.0 9.0 0.00 0.00 0.00 42 1013.6
20260902002506 95 131 3.0 8.0 0.00 0.00 0.00 43 1013.7
20260902002005 95 165 3.0 10.0 0.00 0.00 0.00 43 1013.8
20260902001505 95 143 3.0 8.0 0.00 0.00 0.00 43 1013.9
20260902001006 95 134 2.0 10.0 0.00 0.00 0.00 43 1013.8
20260902000506 95 131 3.0 10.0 0.00 0.00 0.00 43 1013.9
20260902000005 95 124 4.0 10.0 0.00 0.00 0.00 43 1014.0
20260901235505 96 108 5.0 10.0 0.00 0.00 0.00 43 1013.9
20260901235005 96 118 3.0 12.0 0.00 0.00 0.00 42 1013.9
20260901234505 96 117 6.0 12.0 0.00 0.00 0.00 42 1013.9
20260901233006 97 166 3.0 9.0 0.00 0.00 0.00 41 1014.0
20260901232506 97 135 6.0 10.0 0.00 0.00 0.00 41 1014.0
20260901232005 97 164 5.0 10.0 0.00 0.00 0.00 41 1014.1
20260901231505 97 124 5.0 15.0 0.00 0.00 0.00 41 1014.2
20260901231005 98 148 6.0 16.0 0.00 0.00 0.00 41 1014.1
20260901230505 97 106 8.0 12.0 0.00 0.00 0.00 40 1014.1
20260901225506 98 143 6.0 10.0 0.00 0.00 0.00 39 1014.0
20260901225005 98 94 5.0 10.0 0.00 0.00 0.00 40 1014.1
20260901224506 98 138 4.0 12.0 0.00 0.00 0.00 40 1014.1
20260901224006 98 109 6.0 12.0 0.00 0.00 0.00 40 1014.0
20260901223006 98 104 3.0 10.0 0.00 0.00 0.00 39 1013.9
20260901222506 99 131 9.0 13.0 0.00 0.00 0.00 39 1013.9
20260901222005 99 12 3.0 9.0 0.00 0.00 0.00 40 1014.0
20260901221505 99 93 6.0 12.0 0.00 0.00 0.00 38 1014.0
20260901221005 99 152 3.0 8.0 0.00 0.00 0.00 39 1014.0
20260901220505 99 115 5.0 8.0 0.00 0.00 0.00 39 1014.0
20260901220005 99 61 3.0 10.0 0.00 0.00 0.00 39 1014.2
20260901215505 99 73 4.0 12.0 0.00 0.00 0.00 39 1014.2
20260901215005 100 69 3.0 9.0 0.00 0.00 0.00 38 1014.3
20260901214505 100 161 6.0 13.0 0.00 0.00 0.00 37 1014.2
20260901214005 100 76 3.0 9.0 0.00 0.00 0.00 38 1014.4
20260901213505 99 77 2.0 9.0 0.00 0.00 0.00 38 1014.3
20260901213005 99 173 2.0 8.0 0.00 0.00 0.00 40 1014.5
20260901212505 99 113 5.0 10.0 0.00 0.00 0.00 39 1014.5
20260901211505 99 109 4.0 7.0 0.00 0.00 0.00 38 1014.7
20260901211006 99 105 5.0 10.0 0.00 0.00 0.00 39 1014.8
20260901210505 99 108 7.0 12.0 0.00 0.00 0.00 39 1014.8
20260901210005 100 107 10.0 13.0 0.00 0.00 0.00 39 1014.7
20260901205505 99 92 3.0 9.0 0.00 0.00 0.00 39 1014.8
20260901205005 100 90 7.0 13.0 0.00 0.00 0.00 39 1014.8
20260901204505 99 88 3.0 7.0 0.00 0.00 0.00 40 1014.8
20260901204005 99 92 6.0 13.0 0.00 0.00 0.00 40 1014.9
20260901203005 99 119 5.0 13.0 0.00 0.00 0.00 37 1015.0
20260901202006 99 169 6.0 12.0 0.00 0.00 0.00 39 1015.2
20260901195005 98 123 3.0 9.0 0.00 0.00 0.00 40 1015.5
20260901194505 98 118 5.0 13.0 0.00 0.00 0.00 41 1015.5
20260901194005 97 99 2.0 6.0 0.00 0.00 0.00 43 1015.6
20260901193005 97 133 5.0 10.0 0.00 0.00 0.00 41 1015.6
20260901192505 99 157 4.0 8.0 0.00 0.00 0.00 41 1015.7
20260901191505 99 188 7.0 12.0 0.00 0.00 0.00 40 1015.8
20260901191005 99 176 9.0 14.0 0.00 0.00 0.00 40 1015.9
20260901190505 98 95 2.0 9.0 0.00 0.00 0.00 41 1016.0
20260901190005 97 183 5.0 13.0 0.00 0.00 0.00 40 1016.1
20260901185505 97 142 3.0 13.0 0.00 0.00 0.00 41 1016.2
20260901185005 98 163 9.0 12.0 0.00 0.00 0.00 40 1016.3
20260901184505 98 120 4.0 10.0 0.00 0.00 0.00 44 1016.4
20260901184005 97 94 2.0 8.0 0.00 0.00 0.00 44 1016.5
20260901183005 96 94 4.0 7.0 0.00 0.00 0.00 45 1016.7
20260901182505 97 123 7.0 13.0 0.00 0.00 0.00 44 1016.7
20260901182004 97 147 6.0 13.0 0.00 0.00 0.00 44 1016.8
20260901181505 96 123 7.0 10.0 0.00 0.00 0.00 45 1016.9
20260901181005 94 118 2.0 3.0 0.00 0.00 0.00 48 1016.9
20260901180504 93 117 2.0 7.0 0.00 0.00 0.00 49 1017.1
20260901175505 92 92 0.0 2.0 0.00 0.00 0.00 50 1017.2
20260901175004 93 118 2.0 5.0 0.00 0.00 0.00 49 1017.4
20260901174006 95 187 5.0 10.0 0.00 0.00 0.00 47 1017.4
20260901173005 95 166 6.0 9.0 0.00 0.00 0.00 47 1017.6
20260901172005 97 9 2.0 6.0 0.00 0.00 0.00 46 1017.6
20260901171504 96 70 0.0 3.0 0.00 0.00 0.00 47 1017.8
20260901171004 95 131 3.0 6.0 0.00 0.00 0.00 49 1017.8
20260901170005 94 146 3.0 7.0 0.00 0.00 0.00 50 1018.0
20260901165504 94 195 5.0 12.0 0.00 0.00 0.00 50 1018.1
20260901164504 94 183 2.0 3.0 0.00 0.00 0.00 50 1018.0
20260901164004 92 183 1.0 5.0 0.00 0.00 0.00 53 1018.2
20260901163505 93 227 2.0 5.0 0.00 0.00 0.00 51 1018.2
20260901163005 94 147 2.0 8.0 0.00 0.00 0.00 50 1018.2
20260901162005 94 165 3.0 10.0 0.00 0.00 0.00 49 1018.2
20260901161505 93 221 1.0 3.0 0.00 0.00 0.00 51 1018.2
20260901161005 94 214 2.0 9.0 0.00 0.00 0.00 51 1018.2
20260901160505 94 261 4.0 10.0 0.00 0.00 0.00 51 1018.1
20260901160005 94 248 3.0 8.0 0.00 0.00 0.00 51 1018.2
20260901155505 93 186 2.0 8.0 0.00 0.00 0.00 53 1018.2
20260901154504 93 246 4.0 8.0 0.00 0.00 0.00 52 1018.0
20260901153505 92 256 4.0 9.0 0.00 0.00 0.00 53 1018.0
20260901153004 92 241 2.0 5.0 0.00 0.00 0.00 54 1018.0
20260901152004 91 198 3.0 8.0 0.00 0.00 0.00 55 1018.0
20260901151505 91 232 4.0 8.0 0.00 0.00 0.00 56 1018.1
20260901151005 90 263 5.0 8.0 0.00 0.00 0.00 57 1018.1
20260901150504 90 161 3.0 7.0 0.00 0.00 0.00 57 1018.1
20260901150004 90 261 5.0 8.0 0.00 0.00 0.00 57 1018.2
20260901145005 89 198 2.0 5.0 0.00 0.00 0.00 58 1018.2
20260901144504 89 198 1.0 6.0 0.00 0.00 0.00 59 1018.2
20260901144004 88 195 2.0 7.0 0.00 0.00 0.00 59 1018.2
20260901143504 88 242 3.0 6.0 0.00 0.00 0.00 60 1018.2
20260901143005 88 190 1.0 5.0 0.00 0.00 0.00 60 1018.3
20260901141504 87 175 0.0 7.0 0.00 0.00 0.00 62 1018.3
20260901141004 87 179 5.0 7.0 0.00 0.00 0.00 62 1018.2
20260901140004 86 171 5.0 8.0 0.00 0.00 0.00 63 1018.3
20260901135504 86 161 3.0 9.0 0.00 0.00 0.00 64 1018.3
20260901135004 85 176 5.0 8.0 0.00 0.00 0.00 64 1018.2
20260901134504 85 164 4.0 10.0 0.00 0.00 0.00 64 1018.2
20260901134005 84 165 3.0 10.0 0.00 0.00 0.00 66 1018.3
20260901133504 84 175 3.0 7.0 0.00 0.00 0.00 67 1018.2
20260901133004 83 157 5.0 8.0 0.00 0.00 0.00 67 1018.2
20260901132504 83 165 6.0 10.0 0.00 0.00 0.00 67 1018.2
20260901132004 82 181 5.0 8.0 0.00 0.00 0.00 68 1018.1
20260901131504 82 170 3.0 7.0 0.00 0.00 0.00 69 1018.1
20260901131005 81 171 2.0 7.0 0.00 0.00 0.00 70 1018.0
20260901130505 81 171 0.0 2.0 0.00 0.00 0.00 71 1018.0
20260901130005 80 171 0.0 2.0 0.00 0.00 0.00 72 1017.9
20260901125505 80 171 0.0 0.0 0.00 0.00 0.00 72 1017.7
20260901125004 79 171 0.0 2.0 0.00 0.00 0.00 73 1017.7
20260901124505 79 171 0.0 2.0 0.00 0.00 0.00 73 1017.6
20260901124004 79 171 1.0 2.0 0.00 0.00 0.00 73 1017.6
20260901123504 79 171 0.0 1.0 0.00 0.00 0.00 73 1017.4
20260901122504 79 171 0.0 0.0 0.00 0.00 0.00 72 1017.3
20260901122004 79 171 0.0 0.0 0.00 0.00 0.00 73 1017.3
20260901121504 79 171 0.0 1.0 0.00 0.00 0.00 73 1017.2
20260901121004 79 171 0.0 0.0 0.00 0.00 0.00 74 1017.2
20260901120505 79 171 0.0 0.0 0.00 0.00 0.00 75 1017.2
20260901120004 79 171 0.0 0.0 0.00 0.00 0.00 72 1017.3
20260901115504 79 171 0.0 2.0 0.00 0.00 0.00 72 1017.2
20260901115004 79 171 1.0 2.0 0.00 0.00 0.00 71 1017.1
20260901114504 79 171 0.0 0.0 0.00 0.00 0.00 70 1017.1
20260901113505 80 171 0.0 1.0 0.00 0.00 0.00 69 1017.0
20260901113004 80 171 0.0 2.0 0.00 0.00 0.00 69 1017.0
20260901112004 80 171 0.0 6.0 0.00 0.00 0.00 68 1016.8
20260901111504 80 171 2.0 5.0 0.00 0.00 0.00 68 1016.7
20260901110504 81 171 2.0 5.0 0.00 0.00 0.00 67 1016.6
20260901110004 81 171 2.0 5.0 0.00 0.00 0.00 67 1016.6
20260901105504 81 171 2.0 5.0 0.00 0.00 0.00 67 1016.7
20260901105004 81 171 3.0 6.0 0.00 0.00 0.00 70 1016.7
20260901104003 81 159 2.0 7.0 0.00 0.00 0.00 66 1016.7
20260901103003 82 175 2.0 5.0 0.00 0.00 0.00 65 1016.7
20260901102504 82 175 3.0 5.0 0.00 0.00 0.00 65 1016.7
20260901102003 82 175 3.0 5.0 0.00 0.00 0.00 65 1016.7
20260901101504 82 175 2.0 5.0 0.00 0.00 0.00 65 1016.8
20260901101004 82 175 2.0 5.0 0.00 0.00 0.00 66 1016.8
20260901100004 82 164 3.0 6.0 0.00 0.00 0.00 65 1016.8
20260901095503 82 164 1.0 2.0 0.00 0.00 0.00 65 1016.8
20260901095004 82 164 2.0 6.0 0.00 0.00 0.00 65 1016.8
20260901094504 82 164 1.0 5.0 0.00 0.00 0.00 66 1016.9
20260901093003 83 164 2.0 5.0 0.00 0.00 0.00 62 1016.9
20260901092504 83 164 1.0 5.0 0.00 0.00 0.00 62 1016.8
20260901092004 83 164 1.0 5.0 0.00 0.00 0.00 62 1016.9
20260901091503 84 164 2.0 5.0 0.00 0.00 0.00 62 1016.8
20260901091003 84 164 2.0 7.0 0.00 0.00 0.00 61 1016.8